{"data":{"norad_id":46805,"intl_designator":"2020-075A","name":"COSMOS 2547 (705K)","alt_names":[],"object_type":"PAYLOAD","status":"ACTIVE","operator":null,"country":"CIS","launch_date":"2020-10-25","launch_site_code":"PLMSC","launch_vehicle":null,"mission":null,"orbit_class":"UNKNOWN","rcs_meters":null,"size_class":null,"mass_kg":null,"dimensions":null,"purposes":["earth_obs","nav"],"wikipedia_slug":null,"has_3d_model":false,"image_url":null,"decayed_at":null,"tle_current":{"epoch":"2026-05-23T01:46:08.184576Z","epoch_age_seconds":235346,"freshness":"STALE","line1":"1 46805U 20075A   26143.07370584  .00000026  00000+0  00000+0 0  9993","line2":"2 46805  64.5977 193.3141 0008999 239.0049 120.9752  2.13100163 43377","mean_motion":2.13100163,"eccentricity":0.0008999,"inclination_deg":64.5977,"raan_deg":193.3141,"arg_perigee_deg":239.0049,"mean_anomaly_deg":120.9752,"bstar":0,"rev_number":4337,"period_min":675.73857275745,"perigee_km":19107.079216446,"apogee_km":19152.988822647,"semimajor_km":25508.171019547,"source":"CELESTRAK","updated_at":"2026-05-25T13:38:23.896300Z"}}}